Starlink 3551

operational
NORAD ID: 51887 Int'l Des: 2022-022 Owner: SPXS Country: US Constellation: starlink
LEOCIRCULAR

Über Starlink 3551

Beschreibung wird geladen...

Live-Position

3D-Globus wird geladen...

Nächste Überflüge

Höhenverlauf

Altitude vs Time

uPlot chart will show altitude changes over time

Zweizeiliger Elementsatz

1 51887U 22022AM 25354.07204434 -.00000031 00000-0 16135-4 0 9995
2 51887 53.2189 356.5394 0001064 93.1106 267.0008 15.08840006211228
Epoch: 20. Dez. 2025 • Age: 12 hours

Aktueller Status

Höhe 545.6 km
Geschwindigkeit 7.60 km/s
Subsatellitenpunkt 53.28°N, 151.78°E
Startdatum 3. März 2022
Alter 3.7 years
Typ internet

Technische Details

Klassifizierung Payload
Masse 297.00 kg
Trockenmasse 275.00 kg
Gesamtmasse 297.00 kg
Länge 0.20 m
Durchmesser 2.80 m
Spannweite 9.00 m
Form Box + pan
Hersteller SPXS
Bus-Typ Starlink
Phasenstatus In Orbit
Besitzer/Staat SPXS/US

Große Konstellationen

Loading constellations...